#timestamp,LO_Frequency,Hit,StdDev 
1556168415.9,286047000.7,N
1556168435.7,286047000.2,N
1556168455.5,286047000.1,N
1556168475.4,286047000.1,N
1556168495.2,286046999.7,N
1556168515.0,286046999.7,N
1556168515.9,286046999.7,N
1556168535.8,286047002.7,N
1556168555.6,286047000.2,N
1556168575.4,286047000.1,N
1556168595.2,286047002.6,N
1556168615.1,286047002.3,N
1556168616.0,286047002.3,N
1556168635.8,286047000.2,N
1556168655.6,286047000.1,N
1556168675.5,286047002.3,N
1556168695.3,286047002.6,N
1556168715.1,286047002.6,N
1556168735.9,286046999.7,N
1556168755.7,286047002.5,N
1556168775.5,286047002.2,N
1556168795.4,286047001.7,N
1556168815.2,286047001.8,N
1556168835.0,286047000.4,N
1556168835.9,286047000.4,N
1556168855.7,286047001.7,N
1556168875.6,286047002.1,N
1556168895.4,286047002.1,N
1556168915.2,286047002.0,N
1556168935.1,286047002.0,N
1556168936.0,286047002.0,N
1556168955.8,286047002.0,N
1556168975.6,286047002.0,N
1556168995.5,286047002.0,N
1556169015.3,286047002.0,N
1556169035.1,286047001.4,N
1556169055.9,286047001.9,N
1556169075.7,286047001.6,N
1556169095.5,286047001.5,N
1556169115.3,286047001.7,N
1556169135.2,286047001.8,N
1556169155.0,286047001.8,N
1556169155.9,286047001.8,N
1556169175.7,286047001.8,N
1556169195.6,286047001.8,N
1556169215.4,286047001.5,N
1556169235.2,286047001.5,N
1556169255.1,286047001.8,Y
1556169256.0,286047001.8,P
1556169275.8,286047000.1,N
1556169295.6,286047000.2,N
1556169315.5,286047000.2,N
1556169335.3,286047000.4,N
1556169355.1,286046999.8,N
1556169375.9,286046999.7,N
1556169395.7,286047000.3,N
1556169415.5,286046999.9,N
1556169435.4,286047002.7,Y
1556169455.2,286047002.8,P
1556169475.0,286047002.3,N
1556169475.9,286047002.3,N
1556169495.8,286047002.5,N
1556169515.6,286047002.8,Y
1556169535.4,286046998.6,P
1556169555.3,286046998.5,N
1556169575.1,286047000.7,N
1556169576.0,286047000.7,N
1556169595.8,286046998.5,N
1556169615.6,286046998.3,N
1556169635.5,286046998.3,N
1556169655.3,286046998.3,N
1556169675.1,286046998.3,N
1556169695.9,286046998.6,N
1556169715.7,286046998.3,N
1556169735.5,286046998.4,N
1556169755.4,286046998.6,N
1556169775.2,286046998.3,N
1556169795.0,286046998.5,N
1556169795.9,286046998.5,N
1556169815.8,286046998.5,N
1556169835.6,286046998.1,N
1556169855.4,286046998.7,N
1556169875.2,286046998.2,N
1556169895.1,286046998.1,N
1556169896.0,286046998.1,N
1556169915.8,286046998.5,N
1556169935.6,286046998.2,N
1556169955.5,286046998.2,N
1556169975.3,286046998.1,N
1556169995.1,286047001.1,N
1556170015.9,286047001.2,N
1556170035.7,286047001.2,N
1556170055.5,286046998.1,N
1556170075.4,286046998.1,N
1556170095.2,286047001.2,N
1556170115.0,286047001.1,N
1556170115.9,286047001.1,N
1556170135.7,286047000.7,N
1556170155.6,286047001.0,N
1556170175.4,286047000.7,N
1556170195.2,286047000.7,N
1556170215.1,286047000.9,N
1556170216.0,286047000.9,N
1556170235.8,286047000.7,N
1556170255.6,286047000.7,N
1556170275.5,286047000.7,N
1556170295.3,286047001.1,N
1556170315.1,286047000.8,N
1556170335.9,286047000.8,N
1556170355.7,286047000.8,N
1556170375.5,286047000.7,N
1556170395.3,286047000.7,N
1556170415.2,286047000.9,N
1556170435.0,286047001.0,N
1556170435.9,286047001.0,N
1556170455.7,286047000.7,N
1556170475.6,286047000.7,N
1556170495.4,286047000.8,N
1556170515.2,286047000.8,N
1556170535.1,286047001.2,N
1556170536.0,286047001.2,N
1556170555.8,286046998.5,N
1556170575.6,286047001.1,N
1556170595.5,286046998.9,N
1556170615.3,286046998.4,N
1556170635.1,286046999.1,N
1556170655.9,286046999.1,N
1556170675.7,286046999.2,N
1556170695.5,286046999.0,N
1556170715.3,286046999.4,N
1556170735.2,286046999.1,N
1556170755.0,286046999.5,N
1556170755.9,286046999.5,N
1556170775.7,286046999.6,N
1556170795.6,286046999.5,N
1556170815.4,286046999.0,N
1556170835.2,286046999.4,N
1556170855.1,286046999.1,N
1556170856.0,286046999.1,N
1556170875.8,286046999.5,N
1556170895.6,286046996.8,Y
1556170915.5,286046996.5,P
1556170935.3,286046999.1,N
1556170955.1,286046997.4,N
1556170975.9,286046997.6,N
1556170995.7,286046997.4,N
1556171015.5,286046995.6,Y
1556171035.4,286046999.2,P
1556171055.2,286046999.2,N
1556171075.0,286046997.2,P
1556171075.9,286046997.2,Y
1556171095.8,286046998.4,P
1556171115.6,286046999.6,P
1556171135.4,286046999.4,N
1556171155.3,286046999.2,N
1556171175.1,286046999.2,N
1556171176.0,286046999.2,N
1556171195.8,286046999.5,N
1556171215.6,286046999.5,N
1556171235.5,286046996.5,Y
1556171255.3,286046998.8,P
1556171275.1,286046999.2,P
1556171295.9,286046999.1,P
1556171315.7,286046998.8,Y
1556171335.5,286047000.7,P
1556171355.4,286046998.5,N
1556171375.2,286046998.6,N
1556171395.0,286047001.1,N
1556171395.9,286047001.1,N
1556171415.8,286047001.1,N
1556171435.6,286046999.4,N
1556171455.4,286046998.8,N
1556171475.3,286046998.9,N
1556171495.1,286046999.0,N
1556171515.8,286047001.2,N
1556171535.7,286046999.1,N
1556171555.5,286046999.0,N
1556171575.3,286046999.2,N
1556171595.2,286046998.1,N
1556171615.9,286046995.1,Y
1556171635.7,286046997.8,P
1556171655.6,286046998.7,N
1556171675.4,286046998.4,N
1556171695.2,286046999.2,N
1556171715.1,286046995.1,Y
1556171716.0,286046995.1,P
1556171735.8,286046998.4,N
1556171755.6,286047000.6,N
1556171775.4,286046999.5,N
1556171795.3,286046999.3,N
1556171815.1,286046999.5,N
1556171835.8,286046996.6,N
1556171855.7,286046997.7,N
1556171875.5,286046997.8,N
1556171895.3,286046998.0,N
1556171915.2,286046997.9,N
1556171935.9,286046995.5,Y
1556171955.7,286046997.1,P
1556171975.6,286046998.3,N
1556171995.4,286046995.4,P
